EW9081 Weather Reports


time (UTC)temp
F
wind
direction
speed
knots
gust
knots
rain 1hr
in
rain 24hr
in
rain mn
in
humidity
%
barometer
mb
20260507213226 67 65 1.7 6.1 0.00 0.00 0.00 62 1018.1
20260507213222 67 138 0.9 6.1 0.00 0.00 0.00 62 1018.2
20260507212221 67 331 0.9 5.2 0.00 0.00 0.00 60 1018.3
20260507211720 67 166 0.9 5.2 0.00 0.00 0.00 65 1018.2
20260507211221 66 132 1.7 7.0 0.00 0.00 0.00 65 1018.3
20260507210720 66 184 1.7 7.0 0.00 0.00 0.00 61 1018.4
20260507210222 65 0 1.7 6.1 0.00 0.00 0.00 62 1018.5
20260507210218 65 169 1.7 6.1 0.00 0.00 0.00 58 1018.4
20260507205219 65 166 2.6 6.1 0.00 0.00 0.00 61 1018.6
20260507204723 66 13 0.9 5.2 0.00 0.00 0.00 62 1018.7
20260507204717 66 180 1.7 5.2 0.00 0.00 0.00 61 1018.6
20260507203718 65 59 0.9 5.2 0.00 0.00 0.00 62 1018.7
20260507203218 65 59 1.7 6.1 0.00 0.00 0.00 63 1018.8
20260507202723 65 163 0.9 3.5 0.00 0.00 0.00 67 1018.9
20260507202717 65 16 1.7 6.1 0.00 0.00 0.00 63 1018.8
20260507201718 65 18 1.7 3.5 0.00 0.00 0.00 62 1018.9
20260507201221 64 62 0.9 4.3 0.00 0.00 0.00 65 1019.1
20260507201217 64 9 1.7 3.5 0.00 0.00 0.00 65 1019.0
20260507200217 64 277 0.9 4.3 0.00 0.00 0.00 61 1019.1
20260507195721 64 169 1.7 4.3 0.00 0.00 0.00 64 1019.2
20260507195716 64 178 1.7 6.1 0.00 0.00 0.00 65 1019.3
20260507195329 64 166 1.7 6.1 0.00 0.00 0.00 65 1019.3
20260507194216 64 326 1.7 4.3 0.00 0.00 0.00 67 1019.3
20260507193717 64 5 1.7 4.3 0.00 0.00 0.00 64 1019.4
20260507193214 63 340 2.6 6.1 0.00 0.00 0.00 68 1019.4
20260507192715 63 333 2.6 6.1 0.00 0.00 0.00 68 1019.4
20260507192213 63 25 0.9 5.2 0.00 0.00 0.00 64 1019.5
20260507191718 63 185 0.9 3.5 0.00 0.00 0.00 66 1019.6
20260507191714 63 112 0.9 5.2 0.00 0.00 0.00 70 1019.6
20260507190713 63 213 0.9 3.5 0.00 0.00 0.00 66 1019.7
20260507190212 62 46 1.7 3.5 0.00 0.00 0.00 64 1019.7
20260507185712 62 204 1.7 7.0 0.00 0.00 0.00 65 1019.7
20260507185216 62 5 1.7 7.0 0.00 0.00 0.00 68 1019.9
20260507185210 62 14 2.6 7.8 0.00 0.00 0.00 66 1019.9
20260507184208 62 5 3.5 7.8 0.00 0.00 0.00 69 1019.9
20260507183709 62 21 1.7 7.0 0.00 0.00 0.00 72 1019.8
20260507183207 62 291 0.9 3.5 0.00 0.00 0.00 69 1019.9
20260507182708 61 204 0.9 3.5 0.00 0.00 0.00 71 1019.9
20260507182207 60 248 0.9 2.6 0.00 0.00 0.00 72 1019.9
20260507181713 59 179 0.9 3.5 0.00 0.00 0.00 70 1020.1
20260507181708 60 245 0.9 3.5 0.00 0.00 0.00 69 1020.0
20260507180709 58 177 0.9 3.5 0.00 0.00 0.00 72 1020.1
20260507180212 58 30 0.9 2.6 0.00 0.00 0.00 72 1020.2
20260507180208 58 35 0.0 1.7 0.00 0.00 0.00 70 1020.1
20260507175206 58 31 0.9 2.6 0.00 0.00 0.00 74 1020.2
20260507174705 58 312 1.7 5.2 0.00 0.00 0.00 71 1020.3
20260507174205 59 11 2.6 5.2 0.00 0.00 0.00 72 1020.2
20260507173703 59 349 2.6 6.1 0.00 0.00 0.00 71 1020.3
20260507173203 59 329 2.6 6.1 0.00 0.00 0.00 72 1020.3
20260507172704 59 0 2.6 5.2 0.00 0.00 0.00 75 1020.4
20260507172204 58 10 1.7 4.3 0.00 0.00 0.00 77 1020.4
20260507171704 57 279 0.9 3.5 0.00 0.00 0.00 74 1020.4
20260507171207 56 323 0.0 1.7 0.00 0.00 0.00 78 1020.3
20260507171203 56 324 0.0 1.7 0.00 0.00 0.00 78 1020.4
20260507170205 56 322 0.0 1.7 0.00 0.00 0.00 79 1020.3
20260507165704 56 321 0.9 1.7 0.00 0.00 0.00 78 1020.3
20260507165203 56 314 0.9 1.7 0.00 0.00 0.00 76 1020.3
20260507164705 56 316 0.9 1.7 0.00 0.00 0.00 78 1020.4
20260507164204 56 9 0.9 2.6 0.00 0.00 0.00 79 1020.4
20260507163704 55 5 0.9 2.6 0.00 0.00 0.00 78 1020.4
20260507163203 55 9 0.9 2.6 0.00 0.00 0.00 79 1020.4
20260507162704 56 17 0.9 2.6 0.00 0.00 0.00 79 1020.4
20260507162203 56 241 0.9 1.7 0.00 0.00 0.00 79 1020.4
20260507161703 55 273 0.9 2.6 0.00 0.00 0.00 79 1020.4
20260507161203 55 275 0.9 2.6 0.00 0.00 0.00 79 1020.4
20260507160704 55 275 0.9 1.7 0.00 0.00 0.00 79 1020.4
20260507160205 55 188 0.0 1.7 0.00 0.00 0.00 80 1020.4
20260507155709 55 273 0.9 1.7 0.00 0.00 0.00 81 1020.5
20260507155704 55 273 0.0 1.7 0.00 0.00 0.00 81 1020.4
20260507154703 54 273 0.9 1.7 0.00 0.00 0.00 81 1020.4
20260507154204 54 258 0.9 1.7 0.00 0.00 0.00 82 1020.5
20260507153703 54 257 0.0 1.7 0.00 0.00 0.00 82 1020.6
20260507153203 54 257 0.0 1.7 0.00 0.00 0.00 81 1020.6
20260507152705 54 257 0.9 1.7 0.00 0.00 0.00 81 1020.6
20260507152205 53 257 0.9 1.7 0.00 0.00 0.00 82 1020.6
20260507151703 53 258 0.0 1.7 0.00 0.00 0.00 82 1020.6
20260507151204 53 255 0.9 2.6 0.00 0.00 0.00 83 1020.7
20260507150703 53 306 0.9 2.6 0.00 0.00 0.00 82 1020.6
20260507150203 53 261 0.9 2.6 0.00 0.00 0.00 83 1020.7
20260507145704 53 248 0.0 2.6 0.00 0.00 0.00 83 1020.7
20260507145202 53 250 0.9 1.7 0.00 0.00 0.00 84 1020.6
20260507144706 53 261 0.0 2.6 0.00 0.00 0.00 84 1020.6
20260507144702 53 261 0.9 1.7 0.00 0.00 0.00 83 1020.6
20260507143701 52 261 0.0 2.6 0.00 0.00 0.00 84 1020.6
20260507143206 52 262 0.9 1.7 0.00 0.00 0.00 84 1020.6
20260507143202 52 261 0.9 1.7 0.00 0.00 0.00 84 1020.6
20260507142814 52 239 0.9 1.7 0.00 0.00 0.00 85 1020.6
20260507141659 52 238 0.0 1.7 0.00 0.00 0.00 85 1020.5
20260507141201 52 244 0.0 1.7 0.00 0.00 0.00 85 1020.4
20260507140701 52 244 0.0 1.7 0.00 0.00 0.00 85 1020.5
20260507140159 52 244 0.0 1.7 0.00 0.00 0.00 85 1020.4
20260507135659 52 244 0.0 1.7 0.00 0.00 0.00 85 1020.4
20260507135203 52 242 0.0 2.6 0.00 0.00 0.00 85 1020.3
20260507135158 51 240 0.0 2.6 0.00 0.00 0.00 85 1020.3
20260507134158 51 234 0.9 2.6 0.00 0.00 0.00 85 1020.2
20260507133658 51 235 0.9 2.6 0.00 0.00 0.00 84 1020.3
20260507133157 51 248 0.0 1.7 0.00 0.00 0.00 85 1020.2
20260507132657 51 249 0.9 2.6 0.00 0.00 0.00 85 1020.2
20260507132155 51 238 0.9 2.6 0.00 0.00 0.00 85 1020.2
20260507131655 51 232 0.9 2.6 0.00 0.00 0.00 85 1020.3
20260507131155 51 229 0.9 2.6 0.00 0.00 0.00 85 1020.3
20260507130659 51 222 0.9 2.6 0.00 0.00 0.00 85 1020.3
20260507130655 51 239 0.9 2.6 0.00 0.00 0.00 85 1020.3
20260507125655 51 226 0.0 1.7 0.00 0.00 0.00 85 1020.3
20260507125154 51 225 0.0 1.7 0.00 0.00 0.00 85 1020.3
20260507124654 52 222 0.9 2.6 0.00 0.00 0.00 85 1020.4
20260507124153 52 221 0.9 2.6 0.00 0.00 0.00 84 1020.3
20260507123657 52 225 0.0 1.7 0.00 0.00 0.00 85 1020.4
20260507123653 52 225 0.0 0.0 0.00 0.00 0.00 85 1020.4
20260507122653 52 222 0.9 1.7 0.00 0.00 0.00 84 1020.4
20260507122154 52 221 0.9 2.6 0.00 0.00 0.00 85 1020.4
20260507121653 52 224 0.9 2.6 0.00 0.00 0.00 84 1020.5
20260507121156 52 224 0.9 3.5 0.00 0.00 0.00 84 1020.5
20260507121152 52 250 0.9 3.5 0.00 0.00 0.00 84 1020.5
20260507120157 52 226 0.9 3.5 0.00 0.00 0.00 85 1020.6
20260507120153 52 235 1.7 2.6 0.00 0.00 0.00 84 1020.5
20260507115652 52 215 1.7 3.5 0.00 0.00 0.00 85 1020.5
20260507114652 52 238 0.0 2.6 0.00 0.00 0.00 85 1020.7
20260507114152 52 251 0.0 1.7 0.00 0.00 0.00 85 1020.7
20260507113651 52 251 0.0 1.7 0.00 0.00 0.00 85 1020.7
20260507113153 52 251 0.0 1.7 0.00 0.00 0.00 85 1020.7
20260507112652 52 251 0.0 1.7 0.00 0.00 0.00 85 1020.8
20260507112150 52 238 0.0 1.7 0.00 0.00 0.00 85 1020.8
20260507111651 52 237 0.0 2.6 0.00 0.00 0.00 85 1020.8
20260507111150 52 237 0.9 2.6 0.00 0.00 0.00 85 1020.8
20260507110650 52 223 0.9 2.6 0.00 0.00 0.00 85 1020.8
20260507110150 52 223 0.9 2.6 0.00 0.00 0.00 85 1020.8
20260507105654 52 277 0.9 2.6 0.00 0.00 0.00 85 1020.9
20260507105649 52 222 0.9 2.6 0.00 0.00 0.00 85 1020.9
20260507104650 52 259 0.9 2.6 0.00 0.00 0.00 85 1020.9
20260507104149 52 266 0.9 4.3 0.00 0.00 0.00 85 1020.9
20260507103654 52 250 0.0 2.6 0.00 0.00 0.00 85 1021.0
20260507103648 52 241 0.9 4.3 0.00 0.00 0.00 85 1020.9
20260507102647 52 252 0.0 2.6 0.00 0.00 0.00 85 1021.0
20260507102152 52 235 0.9 2.6 0.00 0.00 0.00 84 1021.0
20260507102147 52 252 0.9 2.6 0.00 0.00 0.00 85 1021.0
20260507101647 52 242 0.9 2.6 0.00 0.00 0.00 85 1021.0
20260507100653 52 257 0.9 2.6 0.00 0.00 0.00 84 1021.0
20260507100647 52 251 0.9 2.6 0.00 0.00 0.00 84 1021.0
20260507095648 52 252 0.9 2.6 0.00 0.00 0.00 84 1021.1
20260507095150 52 252 0.9 2.6 0.00 0.00 0.00 84 1021.2
20260507095145 52 244 0.9 2.6 0.00 0.00 0.00 84 1021.1
20260507094145 52 261 0.9 2.6 0.00 0.00 0.00 84 1021.2
20260507093645 52 257 0.0 2.6 0.00 0.00 0.00 84 1021.3
20260507093146 52 247 0.0 0.9 0.00 0.00 0.00 84 1021.3
20260507092644 52 247 0.0 1.7 0.00 0.00 0.00 84 1021.3
20260507092144 52 247 0.0 1.7 0.00 0.00 0.00 84 1021.4
20260507091644 52 245 0.9 1.7 0.00 0.00 0.00 83 1021.4
20260507091144 52 256 0.9 2.6 0.00 0.00 0.00 83 1021.4
20260507090645 52 226 0.9 3.5 0.00 0.00 0.00 83 1021.5
20260507090149 52 259 0.9 3.5 0.00 0.00 0.00 83 1021.6
20260507090144 52 248 0.9 3.5 0.00 0.00 0.00 83 1021.5
20260507085144 52 250 0.9 3.5 0.00 0.00 0.00 83 1021.5
20260507084642 53 277 0.0 2.6 0.00 0.00 0.00 83 1021.5
20260507084145 53 263 0.9 2.6 0.00 0.00 0.00 83 1021.5
20260507084141 53 270 0.9 2.6 0.00 0.00 0.00 83 1021.5
20260507083143 53 254 0.9 2.6 0.00 0.00 0.00 83 1021.5
20260507083138 53 259 0.9 2.6 0.00 0.00 0.00 83 1021.6
20260507082143 53 264 0.9 2.6 0.00 0.00 0.00 83 1021.4
20260507082139 53 250 0.9 2.6 0.00 0.00 0.00 83 1021.4
20260507081752 53 264 0.0 3.5 0.00 0.00 0.00 83 1021.4
20260507081139 53 244 0.9 3.5 0.00 0.00 0.00 83 1021.4
20260507080637 53 254 0.9 2.6 0.00 0.00 0.00 83 1021.4
20260507075636 53 260 0.9 3.5 0.00 0.00 0.00 84 1021.4
20260507075136 53 241 0.9 3.5 0.00 0.00 0.00 83 1021.4
20260507074637 53 259 0.9 3.5 0.00 0.00 0.00 83 1021.4
20260507074138 53 257 0.9 3.5 0.00 0.00 0.00 83 1021.4
20260507073637 53 247 0.9 3.5 0.00 0.00 0.00 83 1021.5
20260507073137 53 265 0.9 5.2 0.00 0.00 0.00 83 1021.4
20260507072638 53 251 0.9 5.2 0.00 0.00 0.00 83 1021.4
20260507072142 53 269 0.9 4.3 0.00 0.00 0.00 83 1021.5
20260507072137 53 214 0.9 5.2 0.00 0.00 0.00 83 1021.5
20260507071142 53 232 0.9 4.3 0.00 0.00 0.00 83 1021.4
20260507071138 53 254 0.9 4.3 0.00 0.00 0.00 83 1021.4
20260507070137 53 213 0.9 3.5 0.00 0.00 0.00 83 1021.5
20260507065639 53 276 0.9 3.5 0.00 0.00 0.00 83 1021.5
20260507065142 53 273 1.7 5.2 0.00 0.00 0.00 83 1021.4
20260507065137 53 226 0.9 4.3 0.00 0.00 0.00 83 1021.4
20260507064139 53 257 1.7 5.2 0.00 0.00 0.00 83 1021.4
20260507063637 53 232 1.7 4.3 0.00 0.00 0.00 83 1021.4
20260507063138 53 247 1.7 7.0 0.00 0.00 0.00 83 1021.5
20260507062637 53 262 1.7 7.0 0.00 0.00 0.00 83 1021.5
20260507062138 53 240 0.9 3.5 0.00 0.00 0.00 83 1021.5
20260507061635 53 259 0.9 5.2 0.00 0.00 0.00 83 1021.5
20260507061135 53 219 0.9 5.2 0.00 0.00 0.00 83 1021.5
20260507060636 53 250 0.9 4.3 0.00 0.00 0.00 83 1021.5
20260507060133 53 250 1.7 5.2 0.00 0.00 0.00 83 1021.5
20260507055635 53 284 1.7 5.2 0.00 0.00 0.00 83 1021.6
20260507055132 53 275 0.9 5.2 0.00 0.00 0.00 83 1021.5
20260507054635 53 270 1.7 3.5 0.00 0.00 0.00 83 1021.5
20260507054133 53 265 1.7 5.2 0.00 0.00 0.00 83 1021.5
20260507053638 53 248 1.7 4.3 0.00 0.00 0.00 83 1021.4
20260507053634 53 201 1.7 5.2 0.00 0.00 0.00 83 1021.5
20260507052633 53 286 1.7 7.8 0.00 0.00 0.00 84 1021.4
20260507052131 52 221 1.7 7.8 0.00 0.00 0.00 84 1021.5
20260507051630 52 258 1.7 6.1 0.00 0.00 0.00 84 1021.5
20260507051131 52 236 0.9 6.1 0.00 0.00 0.00 84 1021.5
20260507050630 52 259 0.9 5.2 0.00 0.00 0.00 84 1021.5
20260507050136 52 266 1.7 6.1 0.00 0.00 0.00 83 1021.5
20260507050130 52 250 0.9 5.2 0.00 0.00 0.00 84 1021.5
20260507045131 52 268 1.7 6.1 0.00 0.00 0.00 83 1021.5
20260507044631 52 260 1.7 6.1 0.00 0.00 0.00 83 1021.5
20260507044130 52 252 1.7 6.1 0.00 0.00 0.00 83 1021.5
20260507043629 52 253 1.7 6.1 0.00 0.00 0.00 83 1021.4
20260507043134 52 245 2.6 8.7 0.00 0.00 0.00 83 1021.4
20260507043129 52 246 2.6 8.7 0.00 0.00 0.00 83 1021.4
20260507042130 52 252 1.7 6.1 0.00 0.00 0.00 83 1021.4
20260507041630 52 238 1.7 5.2 0.00 0.00 0.00 83 1021.3
20260507041127 52 279 1.7 7.8 0.00 0.00 0.00 83 1021.4
20260507040631 53 234 1.7 7.0 0.00 0.00 0.00 83 1021.2
20260507040627 52 271 1.7 7.8 0.00 0.00 0.00 83 1021.3
20260507035627 53 252 1.7 7.0 0.00 0.00 0.00 83 1021.2
20260507035126 53 293 1.7 10.4 0.00 0.00 0.00 83 1021.1
20260507034625 53 236 1.7 10.4 0.00 0.00 0.00 83 1021.0
20260507034125 53 250 2.6 6.1 0.00 0.00 0.00 82 1021.0
20260507033625 53 223 2.6 7.0 0.00 0.00 0.00 82 1020.9
20260507033124 53 261 2.6 7.0 0.00 0.00 0.00 82 1020.9
20260507032623 53 294 1.7 7.0 0.00 0.00 0.00 82 1020.9
20260507032120 53 209 2.6 7.8 0.00 0.00 0.00 81 1020.8
20260507031622 53 227 2.6 7.8 0.00 0.00 0.00 81 1020.9
20260507031121 54 257 2.6 7.8 0.00 0.00 0.00 81 1020.9
20260507030621 54 215 2.6 7.8 0.00 0.00 0.00 81 1020.8
20260507030120 54 239 2.6 8.7 0.00 0.00 0.00 80 1020.8
20260507025620 54 231 2.6 8.7 0.00 0.00 0.00 80 1020.8
20260507025121 54 257 2.6 8.7 0.00 0.00 0.00 80 1020.8
20260507024620 54 268 2.6 8.7 0.00 0.00 0.00 80 1020.8
20260507024120 55 300 1.7 6.1 0.00 0.00 0.00 79 1020.7
20260507023620 55 243 2.6 7.8 0.00 0.00 0.00 79 1020.6
20260507023122 55 305 3.5 10.4 0.00 0.00 0.00 78 1020.6
20260507022620 56 249 2.6 10.4 0.00 0.00 0.00 78 1020.6
20260507022120 56 233 2.6 8.7 0.00 0.00 0.00 78 1020.6
20260507021620 56 243 3.5 8.7 0.00 0.00 0.00 77 1020.7
20260507021121 56 299 3.5 9.6 0.00 0.00 0.00 77 1020.7
20260507020621 57 300 3.5 9.6 0.00 0.00 0.00 76 1020.6
20260507020121 57 248 3.5 9.6 0.00 0.00 0.00 76 1020.7
20260507015621 57 284 3.5 9.6 0.00 0.00 0.00 75 1020.7
20260507015121 58 319 3.5 8.7 0.00 0.00 0.00 75 1020.7
20260507014621 58 314 3.5 8.7 0.00 0.00 0.00 75 1020.7
20260507014120 58 226 3.5 8.7 0.00 0.00 0.00 75 1020.7
20260507013621 58 333 3.5 10.4 0.00 0.00 0.00 74 1020.7
20260507013121 58 238 3.5 10.4 0.00 0.00 0.00 74 1020.7
20260507012620 58 338 4.3 8.7 0.00 0.00 0.00 74 1020.7
20260507012125 59 261 4.3 12.2 0.00 0.00 0.00 74 1020.8
20260507012120 58 219 4.3 12.2 0.00 0.00 0.00 74 1020.8
20260507011121 59 278 4.3 9.6 0.00 0.00 0.00 74 1020.8
20260507010621 59 304 4.3 10.4 0.00 0.00 0.00 73 1020.8
20260507010121 59 284 4.3 10.4 0.00 0.00 0.00 72 1020.9
20260507005626 60 286 3.5 8.7 0.00 0.00 0.00 72 1020.7
20260507005622 60 265 4.3 9.6 0.00 0.00 0.00 73 1020.8
20260507004620 60 229 3.5 8.7 0.00 0.00 0.00 72 1020.7
20260507004120 60 287 3.5 12.2 0.00 0.00 0.00 74 1020.7
20260507003620 60 245 3.5 12.2 0.00 0.00 0.00 71 1020.7
20260507003126 61 243 4.3 11.3 0.00 0.00 0.00 71 1020.6
20260507003122 60 236 4.3 10.4 0.00 0.00 0.00 71 1020.7
20260507002122 61 257 4.3 11.3 0.00 0.00 0.00 71 1020.7
20260507001620 61 298 5.2 13.0 0.00 0.00 0.00 70 1020.7
20260507001120 61 269 4.3 13.0 0.00 0.00 0.00 70 1020.7
20260507000623 62 263 4.3 13.0 0.00 0.00 0.00 70 1020.7
20260507000617 62 254 4.3 13.0 0.00 0.00 0.00 70 1020.6
20260506235616 61 280 4.3 12.2 0.00 0.00 0.00 71 1020.6
20260506235120 62 235 4.3 12.2 0.00 0.00 0.00 69 1020.5
20260506235116 62 294 4.3 12.2 0.00 0.00 0.00 70 1020.5
20260506234117 62 319 4.3 10.4 0.00 0.00 0.00 72 1020.6
20260506233617 62 259 4.3 9.6 0.00 0.00 0.00 70 1020.6
20260506233113 62 262 4.3 11.3 0.00 0.00 0.00 69 1020.6
20260506232619 63 307 2.6 13.9 0.00 0.00 0.00 70 1020.6
20260506232614 63 268 3.5 11.3 0.00 0.00 0.00 69 1020.6
20260506232227 63 272 4.3 13.9 0.00 0.00 0.00 71 1020.6
20260506231115 62 229 6.1 12.2 0.00 0.00 0.00 70 1020.6
20260506230614 63 222 5.2 12.2 0.00 0.00 0.00 68 1020.6
20260506230117 63 253 3.5 9.6 0.00 0.00 0.00 68 1020.7
20260506230112 63 167 4.3 12.2 0.00 0.00 0.00 69 1020.7
20260506225112 64 194 3.5 8.7 0.00 0.00 0.00 68 1020.7
20260506224612 64 238 3.5 8.7 0.00 0.00 0.00 67 1020.7
20260506224110 64 224 3.5 11.3 0.00 0.00 0.00 68 1020.6
20260506223611 64 275 4.3 12.2 0.00 0.00 0.00 72 1020.6
20260506223111 63 232 4.3 12.2 0.00 0.00 0.00 69 1020.7
20260506222611 64 221 4.3 11.3 0.00 0.00 0.00 68 1020.6
20260506222110 64 252 4.3 11.3 0.00 0.00 0.00 68 1020.8
20260506221615 64 275 4.3 10.4 0.00 0.00 0.00 69 1020.7
20260506221610 64 295 4.3 11.3 0.00 0.00 0.00 70 1020.7
20260506221225 64 255 4.3 11.3 0.00 0.00 0.00 68 1020.6
20260506220110 64 258 5.2 11.3 0.00 0.00 0.00 69 1020.6
20260506215610 64 211 4.3 11.3 0.00 0.00 0.00 70 1020.5
20260506215108 64 292 4.3 11.3 0.00 0.00 0.00 70 1020.6
20260506214609 64 280 4.3 12.2 0.00 0.00 0.00 66 1020.5
20260506214109 65 219 4.3 12.2 0.00 0.00 0.00 68 1020.5
20260506213612 65 257 4.3 11.3 0.00 0.00 0.00 65 1020.6
20260506213608 65 339 4.3 9.6 0.00 0.00 0.00 68 1020.6